Location: Ladd Observatory
(41.8387°N, 71.3996°W)
Time: 04:41:22
(UTC-04:00)

Daily predictions for brighter satellites

Satellite Brightness Start Highest point End
(mag) Time Altitude Azimuth Time Altitude Azimuth Time Altitude Azimuth
SL-16 R/B 4.2 02:56:27 26° N 02:56:27 26° N 02:59:06 10° N
Resurs 1-4 Rocket 4.4 02:52:22 10° NNE 02:54:18 21° NE 02:54:18 21° NE
SL-16 R/B 4.2 02:54:25 10° N 02:58:58 24° NE 03:03:30 10° ESE
Cosmos 2227 Rocket 3.9 03:11:34 30° NE 03:11:34 30° NE 03:14:26 10° NNE
ATLAS 2AS CENTAUR R/B 4.3 03:15:25 27° NNW 03:15:25 27° NNW 03:21:36 10° NNE
Cosmos 2297 Rocket 3.7 03:19:29 33° ENE 03:19:29 33° ENE 03:22:56 10° NE
Cosmos 2344 3.7 03:27:45 68° NNW 03:27:45 68° NNW 03:35:54 10° NNE
Lacrosse 5 3.7 03:33:01 28° NE 03:33:01 28° NE 03:35:24 10° NE
BREEZE-M DEB (TANK) 3.9 03:37:52 75° NNE 03:37:58 75° NNE 03:51:23 10° ESE
Cosmos 2082 4.4 03:53:57 45° N 03:53:57 45° N 03:57:52 10° NNE
USA 215 3.1 03:54:48 10° SE 04:01:22 81° SW 04:01:22 81° SW
Cosmos 1727 Rocket 3.9 04:04:16 74° NNW 04:04:16 74° NNW 04:10:10 10° N
CENTAUR R/B 3.6 03:57:02 10° NNW 04:04:42 59° NE 04:12:52 10° SE
Cosmos 2058 Rocket 4.0 04:05:01 10° N 04:09:10 45° ENE 04:09:10 45° ENE
Cosmos 2150 Rocket 4.4 04:10:34 53° SE 04:11:05 55° ESE 04:16:07 10° NNE
Tiangong 1 4.0 04:20:54 16° E 04:20:54 16° E 04:21:40 10° E
CZ-2C R/B 4.0 04:18:11 59° ESE 04:18:47 67° ENE 04:23:26 10° N
CZ-4B R/B 3.6 04:18:03 10° NNE 04:23:28 61° ESE 04:26:34 26° S
CZ-2D R/B 3.4 04:20:22 10° N 04:23:16 28° NNW 04:23:16 28° NNW
Meteor 1-15 Rocket 4.3 04:19:42 10° N 04:25:18 74° E 04:30:55 10° SSE
Cosmos 1898 Rocket 3.4 04:29:39 67° SSW 04:30:24 90° ENE 04:35:43 10° NNE
IRS-1C Rocket 4.0 04:25:38 10° NNE 04:30:58 89° ESE 04:32:18 53° SSW
NOSS 2-2 (C) 4.3 04:32:07 41° SSE 04:32:51 46° ESE 04:37:19 10° NE
NOSS 2-2 (E) 4.0 04:33:01 49° SSE 04:33:39 54° ESE 04:38:18 10° NE
Cosmos 858 Rocket 4.4 04:35:40 56° SSW 04:36:49 88° WNW 04:42:09 10° NNE
Resurs 1-4 Rocket 3.5 04:32:30 10° N 04:35:23 24° NW 04:35:23 24° NW
Cosmos 1937 Rocket 3.6 04:36:06 39° S 04:38:03 76° ESE 04:43:21 10° NNE
Lacrosse 5 rocket 4.0 04:37:13 11° NNW 04:38:15 12° N 04:40:00 10° NNE
Cosmos 724 4.4 04:36:28 41° WNW 04:38:27 58° WSW 04:44:31 10° SSE
Meteor 2-4 Rocket 3.7 04:38:08 52° SW 04:39:25 65° WNW 04:45:20 10° N
SL-16 R/B 2.2 04:37:54 10° NNW 04:43:27 56° WSW 04:48:58 10° S
Cosmos 2098 Rocket 3.6 04:39:44 10° N 04:43:56 64° E 04:49:18 10° SSE
NOSS 3-4 (A) 4.4 04:43:54 30° WNW 04:44:58 32° NW 04:50:48 10° NNE
NOSS 3-4 (C) 4.4 04:43:59 30° WNW 04:45:04 32° NW 04:50:55 10° NNE
Meteor 2-9 Rocket 4.2 04:40:32 10° NNW 04:46:10 64° W 04:51:53 10° S
DELTA 2 R/B (1) 3.6 04:46:14 51° WSW 04:47:31 70° S 04:53:03 10° E
Okean O Rocket 1.7 04:46:12 10° N 04:50:21 54° WNW 04:50:21 54° WNW
ARIANE 5 R/B 4.5 04:47:51 10° NNW 04:49:14 14° NW 04:49:14 14° NW
Cosmos 2227 Rocket 3.4 04:53:25 24° NW 04:53:25 24° NW 04:57:53 10° N
BREEZE-M DEB (TANK) 2.8 04:53:01 61° WNW 04:53:20 66° NNW 04:55:53 10° NE
Meteor 1-23 Rocket 4.3 04:52:38 41° SW 04:54:12 53° WNW 04:59:48 10° N
Cosmos 1602 Rocket 3.9 04:53:14 10° S 04:57:37 65° E 05:01:59 10° NNE
PSLV R/B 3.6 04:56:06 10° NNE 05:00:26 76° E 05:04:40 10° S
Cosmos 1892 Rocket 4.1 05:01:47 38° WNW 05:01:47 38° WNW 05:05:40 10° N
Cosmos 2297 Rocket 3.2 05:01:19 27° WNW 05:01:48 28° NW 05:06:38 10° N
CZ-4B R/B 3.2 04:58:55 10° N 05:03:17 55° WNW 05:04:41 38° SW
Cosmos 2228 3.0 04:59:21 10° NNW 05:03:41 61° W 05:07:58 10° S
Cosmos 192 4.2 05:02:02 10° NNW 05:06:59 76° WSW 05:11:53 10° SSE
MOS 1 Rocket 4.4 05:02:41 10° NNE 05:07:27 49° E 05:12:28 10° S
Lacrosse 5 3.5 05:12:13 17° NW 05:14:06 21° NNW 05:17:55 10° NNE
Cosmos 2100 Rocket 4.3 05:08:35 10° NNW 05:14:22 41° W 05:20:12 10° SSW
Cosmos 1802 Rocket 4.1 05:13:49 10° NNW 05:19:40 46° W 05:25:27 10° SSW
COBE Rocket 4.2 05:16:54 10° NNE 05:21:38 66° E 05:26:15 10° S
USA 129 3.4 05:21:02 10° SE 05:22:35 27° ENE 05:23:08 21° NE
Cosmos 1812 Rocket 3.6 05:18:16 10° N 05:22:45 87° E 05:27:14 10° S
Cosmos 2061 Rocket 4.4 05:17:37 10° NNW 05:23:25 39° W 05:29:16 10° SSW
Cosmos 1943 4.0 05:17:57 10° NNW 05:23:28 53° ENE 05:28:57 10° SE
Cosmos 1725 Rocket 3.9 05:18:12 10° N 05:24:30 77° W 05:30:43 10° S
ADEOS II 2.0 05:22:01 10° N 05:27:17 71° WNW 05:32:30 10° SSW
OAO 2 Rocket 4.3 05:26:15 20° SW 05:29:25 39° S 05:34:21 10° ESE
Cosmos 1603 3.7 05:25:45 10° NNW 05:31:22 60° WSW 05:36:56 10° S
Cosmos 2263 Rocket 3.5 05:27:45 10° S 05:32:56 41° ESE 05:38:07 10° NE
Meteor 2-17 Rocket 4.4 05:28:07 10° N 05:34:17 83° W 05:40:26 10° S
Cosmos 990 Rocket 4.3 05:30:49 14° SW 05:35:03 45° WNW 05:40:06 10° N
SOZ 4.4 05:33:39 17° NW 05:35:17 50° NNE 05:37:35 10° ESE
AVUM R/B 2.4 05:36:26 10° NNW 05:38:49 77° ENE 05:41:01 10° SSE
ADEOS Rocket 3.6 05:35:50 10° N 05:42:26 45° WNW 05:48:23 10° SW
Genesis I 3.9 05:40:15 19° WSW 05:42:39 38° NW 05:46:24 10° NNE
USA 215 4.4 05:40:21 10° SSW 05:44:59 20° WSW 05:48:46 13° W
Cosmos 1048 Rocket 4.2 05:39:57 10° NNW 05:45:07 76° ENE 05:50:13 10° SSE
Ariane Rocket 4.1 05:40:49 10° NNE 05:45:47 49° E 05:50:42 10° S
Cosmos 1269 Rocket 4.0 05:46:22 10° NNW 05:51:41 81° WSW 05:56:57 10° SSE
Thor Agena Rocket 4.4 05:49:14 10° SSW 05:53:44 28° W 05:58:14 10° NW
Cosmos 1766 3.7 05:50:28 10° N 05:54:29 70° E 05:58:27 10° SSE
Tiangong 1 1.2 05:52:48 16° W 05:55:01 54° SSW 05:57:58 10° ESE
CENTAUR R/B 3.6 05:48:08 10° NW 05:55:17 38° WSW 06:02:44 10° S
COSMO-SKYMED 1 2.8 05:52:21 10° SSE 05:56:40 76° ENE 06:01:01 10° N
Cosmos 1825 Rocket 3.5 05:52:40 10° S 05:57:04 86° W 06:01:27 10° N
Meteor 1-31 Rocket 3.0 05:55:04 10° N 05:58:52 50° WNW 06:02:41 10° SSW
Okean-O 3.4 05:57:15 10° N 06:01:10 31° WNW 06:05:04 10° SW
Cosmos 1340 3.0 05:58:11 10° SSW 06:01:49 45° WNW 06:05:30 10° N
Cosmos 372 Rocket 4.1 05:57:13 10° SSW 06:02:19 80° ESE 06:07:28 10° NNE
Cosmos 405 Rocket 4.5 06:06:12 10° SSE 06:09:37 36° E 06:13:03 10° NNE
Cosmos 1125 Rocket 3.8 06:14:06 10° SW 06:19:05 46° WNW 06:24:06 10° N
Lacrosse 5 rocket 4.0 06:16:55 10° NNW 06:19:16 14° NNE 06:21:34 10° NE
Cosmos 1805 4.0 06:15:29 10° N 06:19:23 60° E 06:23:15 10° SSE
Radarsat Rocket 4.1 06:14:26 10° NNE 06:21:02 70° WNW 06:26:58 10° SSW
